When you browse on this site, cookies collect data to enhance your experience and personalize the content and advertising you see.
Visit our Privacy Policy to learn more. By continuing to use the site, you agree to this use of cookies and data.
  • In Austria
  • List of Countries
  • For 7 days
  • Water Temperature
  • Satellite Maps
  • Weather Map
  • News
  • Weather Widgets
  • user-avatar
    Login

    Hourly Weather Rzeszow

    Today, 21 May, Tuesday

    Time Temperature Precipitation Wind Pressure Humidity
    00:00 +13°C° 0 mm 2 mps 736 mmHg 93%
    01:00 +14°C° 0 mm 2 mps 736 mmHg 92%
    02:00 +14°C° 0.1 mm 2 mps 736 mmHg 93%
    03:00 +14°C° 0.1 mm 2 mps 735 mmHg 93%
    04:00 +14°C° 0.1 mm 2 mps 735 mmHg 93%
    05:00 +14°C° 0.3 mm 2 mps 735 mmHg 93%
    06:00 +14°C° 0.3 mm 2 mps 735 mmHg 92%
    07:00 +13°C° 0 mm 3 mps 734 mmHg 93%
    08:00 +13°C° 3.1 mm 4 mps 734 mmHg 94%
    09:00 +13°C° 3.1 mm 4 mps 734 mmHg 95%
    10:00 +13°C° 3.1 mm 5 mps 734 mmHg 96%
    11:00 +13°C° 2.1 mm 6 mps 734 mmHg 95%
    12:00 +12°C° 2.1 mm 7 mps 734 mmHg 94%
    13:00 +12°C° 2.1 mm 7 mps 734 mmHg 94%
    14:00 +12°C° 1.6 mm 7 mps 734 mmHg 93%
    15:00 +12°C° 1.6 mm 7 mps 734 mmHg 93%
    16:00 +12°C° 1.6 mm 7 mps 734 mmHg 92%
    17:00 +12°C° 2.7 mm 7 mps 734 mmHg 92%
    18:00 +12°C° 2.7 mm 7 mps 734 mmHg 92%
    19:00 +12°C° 2.7 mm 7 mps 734 mmHg 92%
    20:00 +12°C° 1.1 mm 7 mps 734 mmHg 91%
    21:00 +12°C° 1.1 mm 7 mps 734 mmHg 91%
    22:00 +12°C° 1.1 mm 7 mps 734 mmHg 90%
    23:00 +13°C° 0.4 mm 6 mps 734 mmHg 90%

    Tomorrow, 22 May, Wednesday

    Time Temperature Precipitation Wind Pressure Humidity
    00:00 +13°C° 0.4 mm 6 mps 734 mmHg 91%
    01:00 +13°C° 0.4 mm 6 mps 734 mmHg 91%
    02:00 +13°C° 0.5 mm 6 mps 734 mmHg 91%
    03:00 +13°C° 0.5 mm 6 mps 734 mmHg 92%
    04:00 +13°C° 0.5 mm 6 mps 734 mmHg 93%
    05:00 +13°C° 0.8 mm 6 mps 734 mmHg 93%
    06:00 +13°C° 0.8 mm 6 mps 734 mmHg 93%
    07:00 +13°C° 0.8 mm 6 mps 734 mmHg 93%
    08:00 +13°C° 0.4 mm 6 mps 735 mmHg 91%
    09:00 +14°C° 0.4 mm 6 mps 735 mmHg 90%
    10:00 +14°C° 0.4 mm 7 mps 735 mmHg 89%
    11:00 +15°C° 0.4 mm 7 mps 735 mmHg 86%
    12:00 +16°C° 0.4 mm 7 mps 735 mmHg 84%
    13:00 +17°C° 0.4 mm 7 mps 735 mmHg 81%
    14:00 +17°C° 1 mm 6 mps 735 mmHg 82%
    15:00 +17°C° 1 mm 6 mps 735 mmHg 83%
    16:00 +17°C° 1 mm 5 mps 735 mmHg 84%
    17:00 +16°C° 0.7 mm 5 mps 735 mmHg 87%
    18:00 +15°C° 0.7 mm 4 mps 735 mmHg 90%
    19:00 +14°C° 0.7 mm 3 mps 735 mmHg 93%
    20:00 +13°C° 0.1 mm 3 mps 735 mmHg 93%
    21:00 +13°C° 0.1 mm 4 mps 735 mmHg 94%
    22:00 +12°C° 0.1 mm 4 mps 736 mmHg 95%
    23:00 +12°C° 0.1 mm 4 mps 736 mmHg 95%

    Day after tomorrow, 23 May, Thursday

    Time Temperature Precipitation Wind Pressure Humidity
    00:00 +13°C° 0.1 mm 4 mps 736 mmHg 95%
    01:00 +13°C° 0.1 mm 4 mps 736 mmHg 95%
    02:00 +13°C° 0.1 mm 4 mps 736 mmHg 96%
    03:00 +13°C° 0.1 mm 3 mps 737 mmHg 97%
    04:00 +14°C° 0.1 mm 2 mps 737 mmHg 97%
    05:00 +14°C° 0 mm 2 mps 737 mmHg 96%
    06:00 +15°C° 0 mm 2 mps 737 mmHg 95%
    07:00 +15°C° 0 mm 2 mps 738 mmHg 94%
    08:00 +16°C° 0.3 mm 2 mps 738 mmHg 92%
    09:00 +16°C° 0.3 mm 2 mps 738 mmHg 89%
    10:00 +17°C° 0.3 mm 2 mps 739 mmHg 86%
    11:00 +18°C° 1.4 mm 2 mps 739 mmHg 84%
    12:00 +18°C° 1.4 mm 2 mps 739 mmHg 82%
    13:00 +19°C° 1.4 mm 3 mps 739 mmHg 80%
    14:00 +19°C° 1.7 mm 4 mps 739 mmHg 83%
    15:00 +17°C° 1.7 mm 5 mps 739 mmHg 85%
    16:00 +17°C° 1.7 mm 6 mps 739 mmHg 88%
    17:00 +16°C° 2.3 mm 6 mps 739 mmHg 90%
    18:00 +15°C° 2.3 mm 6 mps 740 mmHg 93%
    19:00 +14°C° 2.3 mm 6 mps 740 mmHg 95%
    20:00 +14°C° 1.5 mm 6 mps 740 mmHg 96%
    21:00 +14°C° 1.5 mm 6 mps 740 mmHg 96%
    22:00 +14°C° 1.5 mm 6 mps 740 mmHg 96%
    23:00 +14°C° 1.1 mm 5 mps 740 mmHg 96%

    24 May, Friday

    Time Temperature Precipitation Wind Pressure Humidity
    00:00 +13°C° 1.1 mm 5 mps 740 mmHg 96%
    01:00 +13°C° 1.1 mm 5 mps 740 mmHg 97%
    02:00 +13°C° 0.9 mm 5 mps 740 mmHg 96%
    03:00 +13°C° 0.9 mm 5 mps 740 mmHg 96%
    04:00 +12°C° 0.9 mm 5 mps 740 mmHg 96%
    05:00 +12°C° 0.3 mm 5 mps 741 mmHg 96%
    06:00 +12°C° 0.3 mm 5 mps 741 mmHg 96%
    07:00 +11°C° 0.3 mm 4 mps 741 mmHg 95%
    08:00 +11°C° 0.2 mm 4 mps 741 mmHg 95%
    09:00 +10°C° 0.2 mm 5 mps 741 mmHg 95%
    10:00 +10°C° 0.2 mm 5 mps 741 mmHg 95%
    11:00 +10°C° 0.1 mm 5 mps 741 mmHg 94%
    12:00 +10°C° 0.1 mm 5 mps 741 mmHg 93%
    13:00 +10°C° 0.1 mm 5 mps 741 mmHg 92%
    14:00 +12°C° 0 mm 4 mps 740 mmHg 90%
    15:00 +13°C° 0 mm 4 mps 740 mmHg 87%
    16:00 +14°C° 0 mm 4 mps 740 mmHg 85%
    17:00 +13°C° 0 mm 3 mps 740 mmHg 87%
    18:00 +14°C° 0 mm 2 mps 740 mmHg 89%
    19:00 +13°C° 0 mm 2 mps 740 mmHg 91%
    20:00 +13°C° 0 mm 2 mps 740 mmHg 90%
    21:00 +13°C° 0 mm 2 mps 740 mmHg 89%
    22:00 +13°C° 0 mm 2 mps 740 mmHg 88%
    23:00 +13°C° 0 mm 2 mps 740 mmHg 89%

    25 May, Saturday

    Time Temperature Precipitation Wind Pressure Humidity
    00:00 +13°C° 0 mm 2 mps 740 mmHg 89%
    01:00 +12°C° 0 mm 3 mps 740 mmHg 89%
    02:00 +11°C° 0 mm 3 mps 740 mmHg 90%
    03:00 +10°C° 0 mm 3 mps 740 mmHg 91%
    04:00 +10°C° 0 mm 3 mps 740 mmHg 92%
    05:00 +11°C° 0 mm 3 mps 740 mmHg 89%
    06:00 +12°C° 0 mm 3 mps 740 mmHg 86%
    07:00 +13°C° 0 mm 3 mps 740 mmHg 83%
    08:00 +15°C° 0 mm 4 mps 740 mmHg 79%
    09:00 +17°C° 0 mm 4 mps 740 mmHg 75%
    10:00 +19°C° 0 mm 4 mps 740 mmHg 72%
    11:00 +19°C° 0.4 mm 4 mps 740 mmHg 71%
    12:00 +20°C° 0.4 mm 5 mps 739 mmHg 70%
    13:00 +20°C° 0.4 mm 5 mps 739 mmHg 70%
    14:00 +20°C° 0.4 mm 5 mps 739 mmHg 72%
    15:00 +19°C° 0.4 mm 5 mps 739 mmHg 75%
    16:00 +19°C° 0.4 mm 5 mps 739 mmHg 77%
    17:00 +18°C° 0.1 mm 4 mps 739 mmHg 80%
    18:00 +15°C° 0.1 mm 4 mps 739 mmHg 82%
    19:00 +14°C° 0.1 mm 3 mps 740 mmHg 84%
    20:00 +13°C° 0 mm 3 mps 740 mmHg 87%
    21:00 +12°C° 0 mm 2 mps 740 mmHg 89%
    22:00 +10°C° 0 mm 2 mps 740 mmHg 91%
    23:00 +10°C° 0 mm 2 mps 740 mmHg 92%

    26 May, Sunday

    Time Temperature Precipitation Wind Pressure Humidity
    00:00 +9°C° 0 mm 2 mps 740 mmHg 93%
    01:00 +9°C° 0 mm 2 mps 740 mmHg 93%
    02:00 +9°C° 0 mm 2 mps 740 mmHg 93%
    03:00 +9°C° 0 mm 2 mps 740 mmHg 93%
    04:00 +9°C° 0 mm 2 mps 740 mmHg 93%
    05:00 +10°C° 0 mm 3 mps 740 mmHg 89%
    06:00 +11°C° 0 mm 4 mps 740 mmHg 86%
    07:00 +12°C° 0 mm 4 mps 740 mmHg 82%
    08:00 +13°C° 0 mm 5 mps 740 mmHg 79%
    09:00 +14°C° 0 mm 5 mps 740 mmHg 75%
    10:00 +15°C° 0 mm 6 mps 740 mmHg 72%
    11:00 +15°C° 0.1 mm 6 mps 739 mmHg 71%
    12:00 +15°C° 0.1 mm 6 mps 739 mmHg 70%
    13:00 +16°C° 0.1 mm 7 mps 739 mmHg 69%
    14:00 +15°C° 0.1 mm 6 mps 739 mmHg 71%
    15:00 +15°C° 0.1 mm 6 mps 739 mmHg 74%
    16:00 +14°C° 0.1 mm 5 mps 739 mmHg 76%
    17:00 +13°C° 0.1 mm 4 mps 739 mmHg 79%
    18:00 +13°C° 0.1 mm 4 mps 739 mmHg 82%
    19:00 +12°C° 0.1 mm 3 mps 739 mmHg 85%
    20:00 +11°C° 0.1 mm 3 mps 739 mmHg 86%
    21:00 +11°C° 0.1 mm 3 mps 739 mmHg 88%
    22:00 +10°C° 0.1 mm 3 mps 739 mmHg 90%
    23:00 +10°C° 0.3 mm 3 mps 739 mmHg 91%
    Show more